sat.trackr.live / text

‹ back to catalog

STARLINK-5683

NORAD 55452 · 2023-015D

PAYLOAD ACTIVE UNKNOWN

§ Identity

Operator
Country
US
Launch date
2023-02-02
Launch site
AFETR
Launch vehicle
Mass (kg)
RCS (m²)

Purposes: comms

External: N2YO · Heavens-Above · Gunter

§ Orbital elements

Epoch: 2026-05-25T00:59:27.505248Z

Period
94.27 min
Inclination
43.0023°
Eccentricity
0.0002006
Mean motion
15.27574901 rev/d
Perigee alt
481.7 km
Apogee alt
484.4 km
Semi-major
6,861.2 km
B*
9.7811e-6
RAAN
257.9872°
Arg perigee
288.4712°
Mean anomaly
71.5922°
Rev number
18,239

§ Raw data

STARLINK-56831 55452U 23015D   26145.04129057  .00000007  00000+0  97811-5 0  99952 55452  43.0023 257.9872 0002006 288.4712  71.5922 15.27574901182395

JSON: /api/v1/satellites/55452 · /tle

For live sub-satellite position, see the globe view (requires WebGL).

§ Visibility from observer

Set your observer location to see the next 7 days of passes ≥ 10°. The values pass through the URL so the page stays shareable.

No JS? Fill the form by hand. The geolocation button needs JavaScript.